| time (UTC) | temp F | wind direction | speed MPH | gust MPH | rain 1hr in | rain 24hr in | rain mn in | humidity % | barometer mb |
| 20260510175833 | 59 | 0 | 0.0 | 0.0 | 0.00 | 0.00 | 0.00 | 25 | 1014.0 |
| 20260510174833 | 61 | 0 | 0.0 | 0.0 | 0.00 | 0.00 | 0.00 | 24 | 1014.2 |
| 20260510173832 | 62 | 279 | 0.0 | 1.0 | 0.00 | 0.00 | 0.00 | 24 | 1014.4 |
| 20260510172832 | 63 | 270 | 0.0 | 3.0 | 0.00 | 0.00 | 0.00 | 24 | 1014.5 |
| 20260510171832 | 65 | 270 | 0.0 | 1.0 | 0.00 | 0.00 | 0.00 | 23 | 1014.6 |
| 20260510170832 | 65 | 237 | 0.0 | 2.0 | 0.00 | 0.00 | 0.00 | 23 | 1014.7 |
| 20260510165831 | 66 | 61 | 2.0 | 3.0 | 0.00 | 0.00 | 0.00 | 23 | 1014.8 |
| 20260510164831 | 67 | 259 | 2.0 | 3.0 | 0.00 | 0.00 | 0.00 | 23 | 1014.9 |
| 20260510163831 | 68 | 211 | 1.0 | 4.0 | 0.00 | 0.00 | 0.00 | 22 | 1015.1 |
| 20260510162830 | 75 | 302 | 0.0 | 3.0 | 0.00 | 0.00 | 0.00 | 21 | 1015.6 |
| 20260510161830 | 74 | 237 | 2.0 | 6.0 | 0.00 | 0.00 | 0.00 | 21 | 1015.6 |
| 20260510160830 | 73 | 256 | 2.0 | 4.0 | 0.00 | 0.00 | 0.00 | 21 | 1015.8 |
| 20260510155830 | 73 | 256 | 3.0 | 5.0 | 0.00 | 0.00 | 0.00 | 21 | 1015.6 |
| 20260510154829 | 74 | 195 | 4.0 | 8.0 | 0.00 | 0.00 | 0.00 | 21 | 1015.8 |
| 20260510153829 | 75 | 210 | 3.0 | 5.0 | 0.00 | 0.00 | 0.00 | 20 | 1016.1 |
| 20260510152829 | 74 | 225 | 4.0 | 8.0 | 0.00 | 0.00 | 0.00 | 21 | 1016.0 |
| 20260510151828 | 76 | 239 | 3.0 | 6.0 | 0.00 | 0.00 | 0.00 | 20 | 1016.2 |
| 20260510150828 | 77 | 269 | 4.0 | 6.0 | 0.00 | 0.00 | 0.00 | 20 | 1016.3 |
| 20260510145828 | 77 | 285 | 2.0 | 4.0 | 0.00 | 0.00 | 0.00 | 20 | 1016.3 |
| 20260510144827 | 76 | 298 | 3.0 | 8.0 | 0.00 | 0.00 | 0.00 | 20 | 1016.1 |
| 20260510143827 | 79 | 274 | 3.0 | 8.0 | 0.00 | 0.00 | 0.00 | 20 | 1016.4 |
| 20260510142827 | 79 | 303 | 4.0 | 11.0 | 0.00 | 0.00 | 0.00 | 20 | 1016.6 |
| 20260510141827 | 75 | 262 | 7.0 | 11.0 | 0.00 | 0.00 | 0.00 | 21 | 1016.5 |
| 20260510140826 | 76 | 261 | 3.0 | 7.0 | 0.00 | 0.00 | 0.00 | 20 | 1016.7 |
| 20260510135826 | 74 | 225 | 6.0 | 7.0 | 0.00 | 0.00 | 0.00 | 21 | 1016.5 |
| 20260510134826 | 77 | 231 | 4.0 | 5.0 | 0.00 | 0.00 | 0.00 | 20 | 1016.9 |
| 20260510133825 | 76 | 195 | 3.0 | 5.0 | 0.00 | 0.00 | 0.00 | 20 | 1017.0 |
| 20260510132825 | 73 | 243 | 4.0 | 6.0 | 0.00 | 0.00 | 0.00 | 21 | 1016.7 |
| 20260510131825 | 78 | 236 | 4.0 | 8.0 | 0.00 | 0.00 | 0.00 | 20 | 1017.2 |
| 20260510130825 | 77 | 281 | 5.0 | 6.0 | 0.00 | 0.00 | 0.00 | 20 | 1017.1 |
| 20260510125824 | 75 | 241 | 4.0 | 7.0 | 0.00 | 0.00 | 0.00 | 21 | 1017.2 |
| 20260510124824 | 76 | 242 | 4.0 | 7.0 | 0.00 | 0.00 | 0.00 | 20 | 1017.4 |
| 20260510123824 | 78 | 265 | 5.0 | 7.0 | 0.00 | 0.00 | 0.00 | 20 | 1017.7 |
| 20260510122823 | 73 | 241 | 4.0 | 8.0 | 0.00 | 0.00 | 0.00 | 21 | 1017.5 |
| 20260510121823 | 76 | 242 | 4.0 | 9.0 | 0.00 | 0.00 | 0.00 | 20 | 1017.6 |
| 20260510120823 | 77 | 245 | 2.0 | 4.0 | 0.00 | 0.00 | 0.00 | 20 | 1017.9 |
| 20260510115822 | 75 | 127 | 4.0 | 6.0 | 0.00 | 0.00 | 0.00 | 21 | 1017.8 |
| 20260510114822 | 74 | 248 | 4.0 | 9.0 | 0.00 | 0.00 | 0.00 | 21 | 1017.8 |
| 20260510113822 | 75 | 326 | 2.0 | 6.0 | 0.00 | 0.00 | 0.00 | 21 | 1018.2 |
| 20260510112822 | 74 | 240 | 5.0 | 6.0 | 0.00 | 0.00 | 0.00 | 21 | 1018.1 |
| 20260510111821 | 74 | 249 | 3.0 | 8.0 | 0.00 | 0.00 | 0.00 | 21 | 1018.3 |
| 20260510110821 | 72 | 249 | 3.0 | 7.0 | 0.00 | 0.00 | 0.00 | 21 | 1018.2 |
| 20260510105821 | 73 | 331 | 2.0 | 5.0 | 0.00 | 0.00 | 0.00 | 21 | 1018.5 |
| 20260510104820 | 71 | 290 | 4.0 | 7.0 | 0.00 | 0.00 | 0.00 | 22 | 1018.5 |
| 20260510103820 | 72 | 273 | 3.0 | 7.0 | 0.00 | 0.00 | 0.00 | 21 | 1018.7 |
| 20260510102820 | 74 | 238 | 2.0 | 3.0 | 0.00 | 0.00 | 0.00 | 21 | 1019.0 |
| 20260510101820 | 69 | 232 | 3.0 | 3.0 | 0.00 | 0.00 | 0.00 | 22 | 1018.9 |
| 20260510100819 | 70 | 235 | 2.0 | 4.0 | 0.00 | 0.00 | 0.00 | 22 | 1018.9 |
| 20260510095819 | 71 | 230 | 2.0 | 5.0 | 0.00 | 0.00 | 0.00 | 22 | 1019.3 |
| 20260510094819 | 68 | 256 | 2.0 | 4.0 | 0.00 | 0.00 | 0.00 | 23 | 1019.1 |
| 20260510093818 | 70 | 249 | 3.0 | 6.0 | 0.00 | 0.00 | 0.00 | 22 | 1019.4 |
| 20260510092818 | 67 | 299 | 3.0 | 4.0 | 0.00 | 0.00 | 0.00 | 23 | 1019.1 |
| 20260510091818 | 65 | 268 | 3.0 | 3.0 | 0.00 | 0.00 | 0.00 | 23 | 1019.3 |
| 20260510090818 | 65 | 225 | 3.0 | 3.0 | 0.00 | 0.00 | 0.00 | 23 | 1019.4 |
| 20260510085817 | 65 | 182 | 3.0 | 3.0 | 0.00 | 0.00 | 0.00 | 23 | 1019.5 |
| 20260510084817 | 65 | 181 | 3.0 | 3.0 | 0.00 | 0.00 | 0.00 | 23 | 1019.6 |
| 20260510083817 | -25 | 130 | 3.0 | 5.0 | 0.00 | 0.00 | 0.00 | 13 | 951.7 |
| 20260510082816 | 64 | 258 | 2.0 | 4.0 | 0.00 | 0.00 | 0.00 | 24 | 1019.6 |
| 20260510081816 | 63 | 198 | 2.0 | 4.0 | 0.00 | 0.00 | 0.00 | 24 | 1019.6 |
| 20260510080816 | 62 | 131 | 2.0 | 4.0 | 0.00 | 0.00 | 0.00 | 24 | 1019.5 |
| 20260510075816 | 62 | 125 | 2.0 | 4.0 | 0.00 | 0.00 | 0.00 | 24 | 1019.7 |
| 20260510073815 | 58 | 120 | 4.0 | 5.0 | 0.00 | 0.00 | 0.00 | 25 | 1019.7 |
| 20260510072815 | 58 | 110 | 4.0 | 5.0 | 0.00 | 0.00 | 0.00 | 25 | 1019.7 |
| 20260510071814 | 56 | 63 | 2.0 | 4.0 | 0.00 | 0.00 | 0.00 | 26 | 1019.6 |
| 20260510070814 | 57 | 95 | 3.0 | 4.0 | 0.00 | 0.00 | 0.00 | 26 | 1019.7 |
| 20260510065814 | 56 | 84 | 2.0 | 6.0 | 0.00 | 0.00 | 0.00 | 26 | 1019.6 |
| 20260510064813 | -25 | 45 | 1.0 | 1.0 | 0.00 | 0.00 | 0.00 | 13 | 952.5 |
| 20260510063813 | -25 | 45 | 1.0 | 1.0 | 0.00 | 0.00 | 0.00 | 13 | 952.5 |
| 20260510062813 | -25 | 45 | 1.0 | 1.0 | 0.00 | 0.00 | 0.00 | 13 | 952.6 |
| 20260510061813 | -25 | 45 | 1.0 | 1.0 | 0.00 | 0.00 | 0.00 | 13 | 952.6 |
| 20260510060812 | -25 | 45 | 1.0 | 1.0 | 0.00 | 0.00 | 0.00 | 13 | 952.6 |
| 20260510055812 | -25 | 45 | 1.0 | 1.0 | 0.00 | 0.00 | 0.00 | 13 | 952.6 |
| 20260510054812 | -25 | 45 | 1.0 | 1.0 | 0.00 | 0.00 | 0.00 | 13 | 952.6 |
| 20260510053811 | -25 | 45 | 1.0 | 1.0 | 0.00 | 0.00 | 0.00 | 13 | 952.6 |
| 20260510052811 | -25 | 45 | 1.0 | 1.0 | 0.00 | 0.00 | 0.00 | 13 | 952.6 |
| 20260510051811 | -25 | 45 | 1.0 | 1.0 | 0.00 | 0.00 | 0.00 | 13 | 952.6 |
| 20260510050811 | -25 | 45 | 1.0 | 1.0 | 0.00 | 0.00 | 0.00 | 13 | 952.7 |
| 20260510045810 | -25 | 45 | 1.0 | 1.0 | 0.00 | 0.00 | 0.00 | 13 | 952.7 |
| 20260510044810 | -25 | 45 | 1.0 | 1.0 | 0.00 | 0.00 | 0.00 | 13 | 952.7 |
| 20260510043810 | -25 | 45 | 1.0 | 1.0 | 0.00 | 0.00 | 0.00 | 13 | 952.7 |
| 20260510042809 | -25 | 45 | 1.0 | 1.0 | 0.00 | 0.00 | 0.00 | 13 | 952.7 |
| 20260510041809 | -25 | 45 | 1.0 | 1.0 | 0.00 | 0.00 | 0.00 | 13 | 952.8 |
| 20260510040809 | -25 | 45 | 1.0 | 1.0 | 0.00 | 0.00 | 0.00 | 13 | 952.8 |
| 20260510035808 | -25 | 45 | 1.0 | 1.0 | 0.00 | 0.00 | 0.00 | 13 | 952.8 |
| 20260510034808 | -25 | 45 | 1.0 | 1.0 | 0.00 | 0.00 | 0.00 | 13 | 952.8 |
| 20260510033808 | -25 | 45 | 1.0 | 1.0 | 0.00 | 0.00 | 0.00 | 13 | 952.8 |
| 20260510032808 | -25 | 45 | 1.0 | 1.0 | 0.00 | 0.00 | 0.00 | 13 | 952.7 |
| 20260510031807 | -25 | 45 | 1.0 | 1.0 | 0.00 | 0.00 | 0.00 | 13 | 952.7 |
| 20260510030807 | -25 | 45 | 1.0 | 1.0 | 0.00 | 0.00 | 0.00 | 13 | 952.7 |
| 20260510025807 | -25 | 45 | 1.0 | 1.0 | 0.00 | 0.00 | 0.00 | 13 | 952.7 |
| 20260510024806 | -25 | 45 | 1.0 | 1.0 | 0.00 | 0.00 | 0.00 | 13 | 952.7 |
| 20260510023806 | -25 | 45 | 1.0 | 1.0 | 0.00 | 0.00 | 0.00 | 13 | 952.7 |
| 20260510022806 | -25 | 45 | 1.0 | 1.0 | 0.00 | 0.00 | 0.00 | 13 | 952.7 |
| 20260510021806 | -25 | 45 | 1.0 | 1.0 | 0.00 | 0.00 | 0.00 | 13 | 952.7 |
| 20260510020805 | -25 | 45 | 1.0 | 1.0 | 0.00 | 0.00 | 0.00 | 13 | 952.7 |
| 20260510015805 | -25 | 45 | 1.0 | 1.0 | 0.00 | 0.00 | 0.00 | 13 | 952.8 |
| 20260510014805 | -25 | 45 | 1.0 | 1.0 | 0.00 | 0.00 | 0.00 | 13 | 952.8 |
| 20260510013804 | -25 | 45 | 1.0 | 1.0 | 0.00 | 0.00 | 0.00 | 13 | 952.8 |
| 20260510012804 | -25 | 45 | 1.0 | 1.0 | 0.00 | 0.00 | 0.00 | 13 | 952.8 |
| 20260510011804 | -25 | 45 | 1.0 | 1.0 | 0.00 | 0.00 | 0.00 | 13 | 952.9 |
| 20260510010804 | -25 | 45 | 1.0 | 1.0 | 0.00 | 0.00 | 0.00 | 13 | 953.0 |
| 20260510005803 | -25 | 45 | 1.0 | 1.0 | 0.00 | 0.00 | 0.00 | 13 | 953.0 |
| 20260510004803 | -25 | 45 | 1.0 | 1.0 | 0.00 | 0.00 | 0.00 | 13 | 953.1 |
| 20260510003803 | -25 | 45 | 1.0 | 1.0 | 0.00 | 0.00 | 0.00 | 13 | 953.1 |
| 20260510002802 | -25 | 45 | 1.0 | 1.0 | 0.00 | 0.00 | 0.00 | 13 | 953.0 |
| 20260510001802 | -25 | 45 | 1.0 | 1.0 | 0.00 | 0.00 | 0.00 | 13 | 953.0 |
| 20260510000802 | -25 | 45 | 1.0 | 1.0 | 0.00 | 0.00 | 0.00 | 13 | 953.1 |
| 20260509235801 | -25 | 45 | 1.0 | 1.0 | 0.00 | 0.00 | 0.00 | 13 | 953.2 |
| 20260509234801 | -25 | 45 | 1.0 | 1.0 | 0.00 | 0.00 | 0.00 | 13 | 953.2 |
| 20260509233801 | -25 | 45 | 1.0 | 1.0 | 0.00 | 0.00 | 0.00 | 13 | 953.3 |
| 20260509232801 | -25 | 45 | 1.0 | 1.0 | 0.00 | 0.00 | 0.00 | 13 | 953.4 |
| 20260509231800 | -25 | 45 | 1.0 | 1.0 | 0.00 | 0.00 | 0.00 | 13 | 953.4 |
| 20260509230800 | 49 | 45 | 1.0 | 1.0 | 0.00 | 0.00 | 0.00 | 28 | 1020.0 |
| 20260509225800 | 49 | 78 | 2.0 | 4.0 | 0.00 | 0.00 | 0.00 | 28 | 1020.0 |
| 20260509224759 | 49 | 50 | 7.0 | 7.0 | 0.00 | 0.00 | 0.00 | 28 | 1020.1 |
| 20260509223759 | 49 | 45 | 5.0 | 7.0 | 0.00 | 0.00 | 0.00 | 28 | 1020.1 |
| 20260509222759 | 49 | 45 | 3.0 | 4.0 | 0.00 | 0.00 | 0.00 | 28 | 1020.1 |
| 20260509221759 | 49 | 66 | 3.0 | 4.0 | 0.00 | 0.00 | 0.00 | 28 | 1020.1 |
| 20260509220758 | 49 | 81 | 5.0 | 5.0 | 0.00 | 0.00 | 0.00 | 28 | 1020.1 |
| 20260509215758 | -25 | 90 | 5.0 | 5.0 | 0.00 | 0.00 | 0.00 | 13 | 953.5 |
| 20260509214758 | 50 | 90 | 5.0 | 5.0 | 0.00 | 0.00 | 0.00 | 27 | 1020.2 |
| 20260509213757 | 50 | 90 | 5.0 | 5.0 | 0.00 | 0.00 | 0.00 | 27 | 1020.3 |
| 20260509212757 | 50 | 90 | 5.0 | 5.0 | 0.00 | 0.00 | 0.00 | 27 | 1020.3 |
| 20260509211800 | 50 | 90 | 4.0 | 5.0 | 0.00 | 0.00 | 0.00 | 27 | 1020.4 |
| 20260509210756 | 50 | 90 | 3.0 | 3.0 | 0.00 | 0.00 | 0.00 | 27 | 1020.5 |
| 20260509205756 | 50 | 90 | 3.0 | 3.0 | 0.00 | 0.00 | 0.00 | 27 | 1020.5 |
| 20260509204756 | 50 | 80 | 3.0 | 3.0 | 0.00 | 0.00 | 0.00 | 27 | 1020.6 |
| 20260509203756 | -25 | 45 | 2.0 | 2.0 | 0.00 | 0.00 | 0.00 | 13 | 953.8 |
| 20260509202755 | -25 | 45 | 2.0 | 2.0 | 0.00 | 0.00 | 0.00 | 13 | 953.7 |
| 20260509201755 | -25 | 45 | 2.0 | 2.0 | 0.00 | 0.00 | 0.00 | 13 | 953.7 |
| 20260509200755 | -25 | 45 | 2.0 | 2.0 | 0.00 | 0.00 | 0.00 | 13 | 953.6 |
| 20260509195754 | -25 | 45 | 2.0 | 2.0 | 0.00 | 0.00 | 0.00 | 13 | 953.6 |
| 20260509194754 | -25 | 45 | 2.0 | 2.0 | 0.00 | 0.00 | 0.00 | 13 | 953.5 |
| 20260509193754 | 53 | 45 | 2.0 | 2.0 | 0.00 | 0.00 | 0.00 | 27 | 1020.5 |
| 20260509192754 | 53 | 45 | 2.0 | 2.0 | 0.00 | 0.00 | 0.00 | 27 | 1020.5 |
| 20260509191753 | 53 | 45 | 2.0 | 2.0 | 0.00 | 0.00 | 0.00 | 27 | 1020.5 |
| 20260509190753 | 53 | 45 | 2.0 | 2.0 | 0.00 | 0.00 | 0.00 | 27 | 1020.5 |
| 20260509185753 | 53 | 45 | 2.0 | 2.0 | 0.00 | 0.00 | 0.00 | 27 | 1020.4 |
| 20260509184752 | 53 | 85 | 4.0 | 5.0 | 0.00 | 0.00 | 0.00 | 27 | 1020.3 |
| 20260509183752 | 54 | 90 | 5.0 | 5.0 | 0.00 | 0.00 | 0.00 | 26 | 1020.3 |
| 20260509182752 | 54 | 90 | 5.0 | 5.0 | 0.00 | 0.00 | 0.00 | 26 | 1020.1 |
| 20260509181752 | 55 | 90 | 5.0 | 5.0 | 0.00 | 0.00 | 0.00 | 26 | 1020.0 |
| 20260509180751 | 55 | 90 | 5.0 | 5.0 | 0.00 | 0.00 | 0.00 | 26 | 1019.9 |